Tracking 19562 objects as of 24-Mar-2019
HD Live streaming from Space Station
objects crossing your sky now

LEMUR 2 ROMACOSTE

Track LEMUR 2 ROMACOSTE now!
10-day predictions
LEMUR 2 ROMACOSTE is classified as:


NORAD ID: 43048
Int'l Code: 2017-071M
Perigee: 443.7 km
Apogee: 446.8 km
Inclination: 51.6 °
Period: 93.3 minutes
Semi major axis: 6816 km
RCS: Unknown
Launch date: November 12, 2017
Source: United States (US)
Launch site: WALLOPS ISLAND (WLPIS)
aabbcc
Your satellite tracking list
Your tracking list is empty




NASA's NSSDC Master Catalog

Two Line Element Set (TLE):
1 43048U 17071M   19083.25624287  .00003655  00000-0  91632-4 0  9996
2 43048  51.6381 111.7697 0002285 230.8160 129.2623 15.42724931 72815
Source of the keplerian elements: AFSPC